Back to catalog

STARLINK-30817

AliveCommunicationsVLEO
NORAD 58238·PAYLOAD·🇺🇸 United States

Launched Nov 8, 2023 from Cape Canaveral Space Force Station

Loading…

Next Passes (next 24 hours)

TLE

FreshSource: CelesTrak SupGP

Epoch: Sep 14, 2026, 21:06 UTC

1 58238C 23171J   26257.87965278 -.00012161  00000+0 -44055-3 0  2574
2 58238  43.0007 297.0278 0001483 265.3683 174.0006 15.27577869    12

Track STARLINK-30817 in real time with AllMySat

Download on the App Store